Time,TemperatureF,DewpointF,PressureIn,WindDirection,WindDirectionDegrees,WindSpeedMPH,WindSpeedGustMPH,Humidity,HourlyPrecipIn,Conditions,Clouds,dailyrainin,SoftwareType,DateUTC
2013-05-31 00:23:00,65.0,-99.9,30.15,North,352,-999.0,-999.0,-999,-99.99,,,-99.99,,2013-05-31 04:23:00,
2013-05-31 00:33:00,65.0,-99.9,30.15,North,352,-999.0,-999.0,-999,-99.99,,,-99.99,,2013-05-31 04:33:00,
2013-05-31 00:43:00,65.0,-99.9,30.15,North,352,-999.0,-999.0,-999,-99.99,,,-99.99,,2013-05-31 04:43:00,
2013-05-31 00:52:00,65.0,-99.9,30.14,North,352,-999.0,-999.0,-999,-99.99,,,-99.99,,2013-05-31 04:52:00,
2013-05-31 01:22:00,65.0,-99.9,30.14,North,352,-999.0,-999.0,-999,-99.99,,,-99.99,,2013-05-31 05:22:00,
2013-05-31 01:32:00,65.0,-99.9,30.14,North,352,-999.0,-999.0,-999,-99.99,,,-99.99,,2013-05-31 05:32:00,
2013-05-31 01:42:00,65.0,-99.9,30.14,North,352,-999.0,-999.0,-999,-99.99,,,-99.99,,2013-05-31 05:42:00,
2013-05-31 01:52:00,64.0,-99.9,30.14,North,352,-999.0,-999.0,-999,-99.99,,,-99.99,,2013-05-31 05:52:00,
2013-05-31 02:32:00,64.0,-99.9,30.14,North,352,-999.0,-999.0,-999,-99.99,,,-99.99,,2013-05-31 06:32:00,
2013-05-31 02:42:00,64.0,-99.9,30.14,North,352,-999.0,-999.0,-999,-99.99,,,-99.99,,2013-05-31 06:42:00,
2013-05-31 02:52:00,65.0,-99.9,30.14,North,352,-999.0,-999.0,-999,-99.99,,,-99.99,,2013-05-31 06:52:00,
2013-05-31 03:22:00,65.0,-99.9,30.14,North,352,-999.0,-999.0,-999,-99.99,,,-99.99,,2013-05-31 07:22:00,
2013-05-31 03:32:00,65.0,-99.9,30.14,North,352,-999.0,-999.0,-999,-99.99,,,-99.99,,2013-05-31 07:32:00,
2013-05-31 03:42:00,65.0,-99.9,30.14,North,352,-999.0,-999.0,-999,-99.99,,,-99.99,,2013-05-31 07:42:00,
2013-05-31 03:52:00,66.0,-99.9,30.14,North,352,-999.0,-999.0,-999,-99.99,,,-99.99,,2013-05-31 07:52:00,
2013-05-31 04:22:00,66.0,-99.9,30.14,North,352,-999.0,-999.0,-999,-99.99,,,-99.99,,2013-05-31 08:22:00,
2013-05-31 04:32:00,66.0,-99.9,30.14,North,352,-999.0,-999.0,-999,-99.99,,,-99.99,,2013-05-31 08:32:00,
2013-05-31 04:42:00,66.0,-99.9,30.14,North,352,-999.0,-999.0,-999,-99.99,,,-99.99,,2013-05-31 08:42:00,
2013-05-31 04:52:00,67.0,-99.9,30.14,North,352,-999.0,-999.0,-999,-99.99,,,-99.99,,2013-05-31 08:52:00,
2013-05-31 05:32:00,67.0,-99.9,30.14,North,352,-999.0,-999.0,-999,-99.99,,,-99.99,,2013-05-31 09:32:00,
2013-05-31 05:43:00,67.0,-99.9,30.14,North,352,-999.0,-999.0,-999,-99.99,,,-99.99,,2013-05-31 09:43:00,
2013-05-31 05:52:00,66.0,-99.9,30.15,North,352,-999.0,-999.0,-999,-99.99,,,-99.99,,2013-05-31 09:52:00,
2013-05-31 06:33:00,66.0,-99.9,30.15,North,352,-999.0,-999.0,-999,-99.99,,,-99.99,,2013-05-31 10:33:00,
2013-05-31 06:42:00,66.0,-99.9,30.15,North,352,-999.0,-999.0,-999,-99.99,,,-99.99,,2013-05-31 10:42:00,
2013-05-31 08:52:00,74.0,-99.9,30.17,North,352,-999.0,-999.0,-999,-99.99,,,-99.99,,2013-05-31 12:52:00,
2013-05-31 09:21:00,74.0,-99.9,30.17,North,352,-999.0,-999.0,-999,-99.99,,,-99.99,,2013-05-31 13:21:00,
2013-05-31 09:32:00,74.0,-99.9,30.17,North,352,-999.0,-999.0,-999,-99.99,,,-99.99,,2013-05-31 13:32:00,
2013-05-31 09:42:00,74.0,-99.9,30.17,North,352,-999.0,-999.0,-999,-99.99,,,-99.99,,2013-05-31 13:42:00,
2013-05-31 09:52:00,74.0,-99.9,30.16,North,352,-999.0,-999.0,-999,-99.99,,,-99.99,,2013-05-31 13:52:00,
2013-05-31 10:22:00,74.0,-99.9,30.16,North,352,-999.0,-999.0,-999,-99.99,,,-99.99,,2013-05-31 14:22:00,
2013-05-31 10:32:00,74.0,-99.9,30.16,North,352,-999.0,-999.0,-999,-99.99,,,-99.99,,2013-05-31 14:32:00,
2013-05-31 10:42:00,74.0,-99.9,30.16,North,352,-999.0,-999.0,-999,-99.99,,,-99.99,,2013-05-31 14:42:00,
2013-05-31 10:52:00,73.0,-99.9,30.16,North,352,-999.0,-999.0,-999,-99.99,,,-99.99,,2013-05-31 14:52:00,
2013-05-31 11:22:00,73.0,-99.9,30.16,North,352,-999.0,-999.0,-999,-99.99,,,-99.99,,2013-05-31 15:22:00,
2013-05-31 11:33:00,73.0,-99.9,30.16,North,352,-999.0,-999.0,-999,-99.99,,,-99.99,,2013-05-31 15:33:00,
2013-05-31 11:43:00,73.0,-99.9,30.16,North,352,-999.0,-999.0,-999,-99.99,,,-99.99,,2013-05-31 15:43:00,
2013-05-31 11:52:00,75.0,-99.9,30.15,North,352,-999.0,-999.0,-999,-99.99,,,-99.99,,2013-05-31 15:52:00,
2013-05-31 12:22:00,75.0,-99.9,30.15,North,352,-999.0,-999.0,-999,-99.99,,,-99.99,,2013-05-31 16:22:00,
2013-05-31 12:33:00,75.0,-99.9,30.15,North,352,-999.0,-999.0,-999,-99.99,,,-99.99,,2013-05-31 16:33:00,
2013-05-31 12:42:00,75.0,-99.9,30.15,North,352,-999.0,-999.0,-999,-99.99,,,-99.99,,2013-05-31 16:42:00,
2013-05-31 12:52:00,74.0,-99.9,30.14,North,352,-999.0,-999.0,-999,-99.99,,,-99.99,,2013-05-31 16:52:00,
2013-05-31 13:22:00,74.0,-99.9,30.14,North,352,-999.0,-999.0,-999,-99.99,,,-99.99,,2013-05-31 17:22:00,
2013-05-31 13:32:00,74.0,-99.9,30.14,North,352,-999.0,-999.0,-999,-99.99,,,-99.99,,2013-05-31 17:32:00,
2013-05-31 13:42:00,74.0,-99.9,30.14,North,352,-999.0,-999.0,-999,-99.99,,,-99.99,,2013-05-31 17:42:00,
2013-05-31 13:52:00,73.0,-99.9,30.13,North,352,-999.0,-999.0,-999,-99.99,,,-99.99,,2013-05-31 17:52:00,
2013-05-31 14:22:00,73.0,-99.9,30.13,North,352,-999.0,-999.0,-999,-99.99,,,-99.99,,2013-05-31 18:22:00,
2013-05-31 14:32:00,73.0,-99.9,30.13,North,352,-999.0,-999.0,-999,-99.99,,,-99.99,,2013-05-31 18:32:00,
2013-05-31 14:42:00,73.0,-99.9,30.13,North,352,-999.0,-999.0,-999,-99.99,,,-99.99,,2013-05-31 18:42:00,
2013-05-31 15:52:00,74.0,-99.9,30.10,North,352,-999.0,-999.0,-999,-99.99,,,-99.99,,2013-05-31 19:52:00,
2013-05-31 16:32:00,74.0,-99.9,30.10,North,352,-999.0,-999.0,-999,-99.99,,,-99.99,,2013-05-31 20:32:00,
2013-05-31 16:42:00,74.0,-99.9,30.10,North,352,-999.0,-999.0,-999,-99.99,,,-99.99,,2013-05-31 20:42:00,
2013-05-31 16:52:00,71.0,-99.9,30.09,North,352,-999.0,-999.0,-999,-99.99,,,-99.99,,2013-05-31 20:52:00,
2013-05-31 17:33:00,71.0,-99.9,30.09,North,352,-999.0,-999.0,-999,-99.99,,,-99.99,,2013-05-31 21:33:00,
2013-05-31 17:43:00,71.0,-99.9,30.09,North,352,-999.0,-999.0,-999,-99.99,,,-99.99,,2013-05-31 21:43:00,
2013-05-31 17:52:00,71.0,-99.9,30.07,North,352,-999.0,-999.0,-999,-99.99,,,-99.99,,2013-05-31 21:52:00,
2013-05-31 18:33:00,71.0,-99.9,30.07,North,352,-999.0,-999.0,-999,-99.99,,,-99.99,,2013-05-31 22:33:00,
2013-05-31 18:42:00,71.0,-99.9,30.07,North,352,-999.0,-999.0,-999,-99.99,,,-99.99,,2013-05-31 22:42:00,
2013-05-31 18:52:00,70.0,-99.9,30.06,North,352,-999.0,-999.0,-999,-99.99,,,-99.99,,2013-05-31 22:52:00,
2013-05-31 19:22:00,70.0,-99.9,30.06,North,352,-999.0,-999.0,-999,-99.99,,,-99.99,,2013-05-31 23:22:00,
2013-05-31 19:32:00,70.0,-99.9,30.06,North,352,-999.0,-999.0,-999,-99.99,,,-99.99,,2013-05-31 23:32:00,
2013-05-31 19:42:00,70.0,-99.9,30.06,North,352,-999.0,-999.0,-999,-99.99,,,-99.99,,2013-05-31 23:42:00,
2013-05-31 19:52:00,68.0,-99.9,30.06,North,352,-999.0,-999.0,-999,-99.99,,,-99.99,,2013-05-31 23:52:00,
2013-05-31 20:22:00,68.0,-99.9,30.06,North,352,-999.0,-999.0,-999,-99.99,,,-99.99,,2013-06-01 00:22:00,
2013-05-31 20:32:00,68.0,-99.9,30.06,North,352,-999.0,-999.0,-999,-99.99,,,-99.99,,2013-06-01 00:32:00,
2013-05-31 20:42:00,68.0,-99.9,30.06,North,352,-999.0,-999.0,-999,-99.99,,,-99.99,,2013-06-01 00:42:00,
2013-05-31 20:52:00,67.0,-99.9,30.06,North,352,-999.0,-999.0,-999,-99.99,,,-99.99,,2013-06-01 00:52:00,
2013-05-31 21:22:00,67.0,-99.9,30.06,North,352,-999.0,-999.0,-999,-99.99,,,-99.99,,2013-06-01 01:22:00,
2013-05-31 21:32:00,67.0,-99.9,30.06,North,352,-999.0,-999.0,-999,-99.99,,,-99.99,,2013-06-01 01:32:00,
2013-05-31 21:42:00,67.0,-99.9,30.06,North,352,-999.0,-999.0,-999,-99.99,,,-99.99,,2013-06-01 01:42:00,
2013-05-31 21:52:00,67.0,-99.9,30.07,North,352,-999.0,-999.0,-999,-99.99,,,-99.99,,2013-06-01 01:52:00,
2013-05-31 22:32:00,67.0,-99.9,30.07,North,352,-999.0,-999.0,-999,-99.99,,,-99.99,,2013-06-01 02:32:00,
2013-05-31 22:42:00,67.0,-99.9,30.07,North,352,-999.0,-999.0,-999,-99.99,,,-99.99,,2013-06-01 02:42:00,
2013-05-31 22:52:00,66.0,-99.9,30.09,North,352,-999.0,-999.0,-999,-99.99,,,-99.99,,2013-06-01 02:52:00,
2013-05-31 23:22:00,66.0,-99.9,30.09,North,352,-999.0,-999.0,-999,-99.99,,,-99.99,,2013-06-01 03:22:00,
2013-05-31 23:33:00,66.0,-99.9,30.09,North,352,-999.0,-999.0,-999,-99.99,,,-99.99,,2013-06-01 03:33:00,
2013-05-31 23:43:00,66.0,-99.9,30.09,North,352,-999.0,-999.0,-999,-99.99,,,-99.99,,2013-06-01 03:43:00,
2013-05-31 23:52:00,67.0,-99.9,30.08,North,352,-999.0,-999.0,-999,-99.99,,,-99.99,,2013-06-01 03:52:00,